CW9206 Weather Reports


time (UTC)temp
F
wind
direction
speed
knots
gust
knots
rain 1hr
in
rain 24hr
in
rain mn
in
humidity
%
barometer
mb
20260509105742 54 280 0.0 0.0 0.00 0.00 0.00 13 1013.6
20260509105242 54 280 0.0 0.0 0.00 0.00 0.00 13 1013.8
20260509104741 54 280 0.0 0.0 0.00 0.00 0.00 13 1013.7
20260509104241 54 280 0.0 0.0 0.00 0.00 0.00 13 1013.7
20260509103241 54 280 0.0 0.0 0.00 0.00 0.00 13 1013.8
20260509102741 55 280 0.0 0.0 0.00 0.00 0.00 13 1013.7
20260509101741 55 280 0.0 0.0 0.00 0.00 0.00 13 1013.7
20260509101241 55 280 0.0 0.0 0.00 0.00 0.00 13 1013.6
20260509100742 55 280 0.0 0.0 0.00 0.00 0.00 13 1013.6
20260509100242 55 280 0.0 0.0 0.00 0.00 0.00 13 1013.6
20260509095242 55 280 0.0 0.0 0.00 0.00 0.00 13 1013.7
20260509094741 55 280 0.0 0.0 0.00 0.00 0.00 13 1013.7
20260509094241 55 280 0.0 0.0 0.00 0.00 0.00 13 1013.7
20260509093742 55 280 0.0 0.0 0.00 0.00 0.00 13 1013.8
20260509093241 55 280 0.0 0.0 0.00 0.00 0.00 13 1013.8
20260509092741 55 280 0.0 0.0 0.00 0.00 0.00 13 1013.8
20260509092241 55 280 0.0 0.0 0.00 0.00 0.00 13 1013.9
20260509091742 55 280 0.0 0.0 0.00 0.00 0.00 13 1013.9
20260509091241 55 280 0.0 0.0 0.00 0.00 0.00 13 1013.9
20260509090741 55 280 0.0 0.0 0.00 0.00 0.00 13 1013.9
20260509090242 55 280 0.0 0.0 0.00 0.00 0.00 13 1014.1
20260509085242 55 280 0.0 0.0 0.00 0.00 0.00 13 1014.1
20260509084741 55 280 0.0 0.0 0.00 0.00 0.00 13 1014.1
20260509084241 55 280 0.0 0.0 0.00 0.00 0.00 13 1014.1
20260509083742 55 280 0.0 0.0 0.00 0.00 0.00 13 1014.1
20260509083241 55 280 0.0 0.0 0.00 0.00 0.00 13 1014.1
20260509082742 55 280 0.0 0.0 0.00 0.00 0.00 13 1014.3
20260509082241 55 280 0.0 0.0 0.00 0.00 0.00 13 1014.4
20260509081741 55 280 0.0 0.0 0.00 0.00 0.00 13 1014.3
20260509081241 55 280 0.0 0.0 0.00 0.00 0.00 13 1014.4
20260509080741 55 280 0.0 0.9 0.00 0.00 0.00 13 1014.5
20260509080241 55 280 0.0 3.5 0.00 0.00 0.00 13 1014.5
20260509075741 55 280 0.0 3.5 0.00 0.00 0.00 13 1014.5
20260509075241 56 280 0.0 2.6 0.00 0.00 0.00 13 1014.6
20260509074742 56 280 2.6 2.6 0.00 0.00 0.00 13 1014.6
20260509074241 56 280 0.0 1.7 0.00 0.00 0.00 13 1014.7
20260509073741 56 280 0.0 2.6 0.00 0.00 0.00 13 1014.5
20260509073241 56 280 0.0 2.6 0.00 0.00 0.00 13 1014.5
20260509072741 56 280 0.0 0.0 0.00 0.00 0.00 13 1014.5
20260509072241 56 280 0.0 0.0 0.00 0.00 0.00 13 1014.6
20260509071741 56 280 0.0 0.0 0.00 0.00 0.00 13 1014.5
20260509071241 56 280 0.0 0.0 0.00 0.00 0.00 13 1014.6
20260509070741 56 280 0.0 0.0 0.00 0.00 0.00 12 1014.7
20260509070241 56 280 0.0 0.0 0.00 0.00 0.00 12 1014.8
20260509065742 56 280 0.0 0.0 0.00 0.00 0.00 12 1014.7
20260509065241 56 280 0.0 0.0 0.00 0.00 0.00 12 1014.7
20260509064741 56 280 0.0 0.0 0.00 0.00 0.00 12 1014.7
20260509064241 56 280 0.0 0.0 0.00 0.00 0.00 12 1014.7
20260509063741 56 280 0.0 0.0 0.00 0.00 0.00 12 1014.7
20260509063241 56 280 0.0 0.0 0.00 0.00 0.00 12 1014.7
20260509062741 56 280 0.0 0.0 0.00 0.00 0.00 12 1014.6
20260509062241 56 280 0.0 0.0 0.00 0.00 0.00 12 1014.6
20260509061241 56 280 0.0 0.0 0.00 0.00 0.00 12 1014.6
20260509060741 56 280 0.0 0.0 0.00 0.00 0.00 12 1014.7
20260509060241 56 280 0.0 0.0 0.00 0.00 0.00 12 1014.7
20260509055741 56 280 0.0 0.0 0.00 0.00 0.00 12 1014.6
20260509055241 56 280 0.0 1.7 0.00 0.00 0.00 12 1014.7
20260509054741 56 280 0.0 1.7 0.00 0.00 0.00 12 1014.8
20260509054241 55 280 0.0 1.7 0.00 0.00 0.00 12 1014.7
20260509053741 55 280 0.9 1.7 0.00 0.00 0.00 12 1014.7
20260509053241 55 280 1.7 1.7 0.00 0.00 0.00 12 1014.8
20260509052741 55 280 0.0 1.7 0.00 0.00 0.00 12 1014.7
20260509052241 55 280 0.9 2.6 0.00 0.00 0.00 12 1014.7
20260509051741 55 280 0.0 2.6 0.00 0.00 0.00 12 1014.7
20260509051241 55 280 0.0 2.6 0.00 0.00 0.00 12 1014.6
20260509050741 55 280 0.0 2.6 0.00 0.00 0.00 12 1014.5
20260509050241 55 280 2.6 2.6 0.00 0.00 0.00 12 1014.6
20260509045741 55 280 0.0 3.5 0.00 0.00 0.00 13 1014.5
20260509045240 55 280 0.0 3.5 0.00 0.00 0.00 13 1014.4
20260509044741 55 280 0.0 3.5 0.00 0.00 0.00 13 1014.4
20260509044241 55 280 2.6 3.5 0.00 0.00 0.00 13 1014.4
20260509043741 55 280 0.0 4.3 0.00 0.00 0.00 13 1014.2
20260509042740 55 280 3.5 4.3 0.00 0.00 0.00 14 1014.2
20260509042240 55 280 0.0 4.3 0.00 0.00 0.00 14 1014.1
20260509041741 55 281 0.9 3.5 0.00 0.00 0.00 14 1014.1
20260509041241 55 281 0.0 2.6 0.00 0.00 0.00 14 1013.9
20260509040241 55 281 0.0 3.5 0.00 0.00 0.00 15 1013.8
20260509035741 55 281 0.0 3.5 0.00 0.00 0.00 15 1013.7
20260509035240 55 280 0.0 2.6 0.00 0.00 0.00 16 1013.8
20260509034740 55 280 0.0 3.5 0.00 0.00 0.00 16 1013.7
20260509034240 56 280 0.0 5.2 0.00 0.00 0.00 17 1013.7
20260509033741 56 281 0.0 5.2 0.00 0.00 0.00 18 1013.6
20260509033241 56 280 0.0 3.5 0.00 0.00 0.00 19 1013.7
20260509032240 56 280 0.0 5.2 0.00 0.00 0.00 21 1013.3
20260509031741 56 281 0.0 5.2 0.00 0.00 0.00 22 1013.4
20260509031240 57 279 0.0 4.3 0.00 0.00 0.00 22 1013.3
20260509030740 57 275 0.9 4.3 0.00 0.00 0.00 24 1013.2
20260509030241 57 265 0.0 3.5 0.00 0.00 0.00 25 1013.2
20260509025740 57 269 0.0 3.5 0.00 0.00 0.00 26 1013.2
20260509025241 58 269 1.7 4.3 0.00 0.00 0.00 27 1013.2
20260509024740 58 315 1.7 4.3 0.00 0.00 0.00 28 1013.0
20260509024241 59 276 0.0 4.3 0.00 0.00 0.00 30 1012.9
20260509023741 59 281 0.0 4.3 0.00 0.00 0.00 31 1012.9
20260509022740 60 286 0.0 6.1 0.00 0.00 0.00 34 1013.0
20260509022241 60 194 3.5 7.8 0.00 0.00 0.00 35 1012.9
20260509021741 61 242 0.0 7.8 0.00 0.00 0.00 36 1012.9
20260509021241 62 283 2.6 6.1 0.00 0.00 0.00 37 1012.9
20260509020741 62 210 5.2 6.1 0.00 0.00 0.00 38 1012.9
20260509020240 62 287 2.6 4.3 0.00 0.00 0.00 39 1012.9
20260509015741 63 277 3.5 4.3 0.00 0.00 0.00 40 1012.8
20260509013741 65 222 3.5 5.2 0.00 0.00 0.00 42 1013.0
20260509013240 66 323 3.5 5.2 0.00 0.00 0.00 42 1012.8
20260509012741 66 183 0.0 5.2 0.00 0.00 0.00 42 1012.7
20260509010741 67 260 0.0 11.3 0.00 0.00 0.00 43 1012.8
20260509010240 68 242 0.0 10.4 0.00 0.00 0.00 43 1012.8
20260509005740 68 272 0.9 8.7 0.00 0.00 0.00 43 1012.9
20260509004741 69 277 1.7 9.6 0.00 0.00 0.00 42 1012.9
20260509004240 70 284 1.7 8.7 0.00 0.00 0.00 42 1012.9
20260509003741 70 271 0.0 7.8 0.00 0.00 0.00 41 1012.9
20260509003240 70 301 1.7 8.7 0.00 0.00 0.00 41 1012.9
20260509002741 70 290 3.5 8.7 0.00 0.00 0.00 41 1013.0
20260509002240 71 261 0.0 9.6 0.00 0.00 0.00 41 1012.8
20260509001741 71 288 1.7 9.6 0.00 0.00 0.00 42 1012.9
20260509001241 71 188 0.0 9.6 0.00 0.00 0.00 41 1012.8
20260508235741 71 217 0.0 10.4 0.00 0.00 0.00 41 1013.0
20260508235241 71 290 0.9 10.4 0.00 0.00 0.00 41 1012.9
20260508234740 72 236 0.0 8.7 0.00 0.00 0.00 40 1012.9
20260508234240 72 271 0.0 6.1 0.00 0.00 0.00 40 1013.0
20260508233740 72 248 0.0 5.2 0.00 0.00 0.00 41 1013.0
20260508232740 71 331 2.6 8.7 0.00 0.00 0.00 41 1013.2
20260508231740 72 245 2.6 9.6 0.00 0.00 0.00 40 1013.3
20260508231240 72 306 6.1 8.7 0.00 0.00 0.00 40 1013.3
20260508230740 72 281 0.9 10.4 0.00 0.00 0.00 40 1013.3
20260508230240 72 263 1.7 10.4 0.00 0.00 0.00 40 1013.3
20260508225741 72 279 3.5 9.6 0.00 0.00 0.00 40 1013.5
20260508225240 72 253 1.7 8.7 0.00 0.00 0.00 40 1013.5
20260508224740 72 281 0.0 8.7 0.00 0.00 0.00 40 1013.5
20260508224240 72 259 6.1 10.4 0.00 0.00 0.00 40 1013.6
20260508223740 72 181 3.5 10.4 0.00 0.00 0.00 40 1013.7
20260508223240 73 171 3.5 9.6 0.00 0.00 0.00 40 1013.8
20260508221240 73 242 6.1 10.4 0.00 0.00 0.00 39 1014.1
20260508220240 73 259 2.6 13.0 0.00 0.00 0.00 39 1014.1
20260508215740 73 306 1.7 10.4 0.00 0.00 0.00 39 1014.2
20260508214740 73 223 2.6 9.6 0.00 0.00 0.00 39 1014.2
20260508214240 73 148 0.0 6.1 0.00 0.00 0.00 39 1014.3
20260508213740 74 261 1.7 10.4 0.00 0.00 0.00 39 1014.3
20260508212740 74 275 0.9 9.6 0.00 0.00 0.00 38 1014.3
20260508212240 74 274 0.9 9.6 0.00 0.00 0.00 38 1014.3
20260508211740 74 226 6.1 8.7 0.00 0.00 0.00 38 1014.4
20260508211240 75 239 3.5 8.7 0.00 0.00 0.00 37 1014.5
20260508210740 75 263 6.1 8.7 0.00 0.00 0.00 37 1014.4
20260508210240 75 261 1.7 7.8 0.00 0.00 0.00 36 1014.5
20260508205739 75 299 3.5 8.7 0.00 0.00 0.00 36 1014.6
20260508203740 74 279 4.3 6.1 0.00 0.00 0.00 35 1014.7
20260508203240 74 258 2.6 10.4 0.00 0.00 0.00 35 1014.8
20260508202740 74 257 0.0 10.4 0.00 0.00 0.00 35 1014.8
20260508202239 74 309 2.6 6.1 0.00 0.00 0.00 34 1014.9
20260508201740 74 310 1.7 8.7 0.00 0.00 0.00 34 1014.9
20260508200740 74 300 0.0 7.8 0.00 0.00 0.00 34 1015.0
20260508200239 73 299 0.0 7.8 0.00 0.00 0.00 34 1014.9
20260508195739 73 256 0.0 7.8 0.00 0.00 0.00 33 1015.0
20260508194239 73 264 0.0 6.1 0.00 0.00 0.00 32 1015.2
20260508193740 73 225 0.9 5.2 0.00 0.00 0.00 31 1015.3
20260508192740 72 199 0.9 4.3 0.00 0.00 0.00 30 1015.3
20260508192240 71 215 0.0 7.8 0.00 0.00 0.00 30 1015.3
20260508191739 71 275 0.0 7.8 0.00 0.00 0.00 30 1015.5
20260508191239 70 44 0.0 5.2 0.00 0.00 0.00 30 1015.5
20260508190740 70 246 2.6 5.2 0.00 0.00 0.00 30 1015.4
20260508190240 69 236 0.0 5.2 0.00 0.00 0.00 30 1015.4
20260508185739 69 307 0.0 6.1 0.00 0.00 0.00 29 1015.5
20260508185239 69 304 0.0 6.1 0.00 0.00 0.00 29 1015.6
20260508184739 68 304 2.6 6.1 0.00 0.00 0.00 29 1015.6
20260508184239 68 306 2.6 6.1 0.00 0.00 0.00 28 1015.8
20260508183239 67 273 0.9 8.7 0.00 0.00 0.00 28 1015.9
20260508182739 67 245 0.9 6.1 0.00 0.00 0.00 27 1015.9
20260508182239 67 231 0.0 4.3 0.00 0.00 0.00 27 1016.0
20260508181239 66 300 2.6 7.8 0.00 0.00 0.00 27 1016.0
20260508175738 66 237 1.7 4.3 0.00 0.00 0.00 25 1016.1
20260508175238 65 291 0.9 7.8 0.00 0.00 0.00 25 1016.1
20260508174238 64 215 0.0 3.5 0.00 0.00 0.00 21 1016.0
20260508173238 63 213 0.0 4.3 0.00 0.00 0.00 19 1016.1
20260508172739 63 209 0.0 5.2 0.00 0.00 0.00 18 1016.1
20260508171738 62 271 0.0 4.3 0.00 0.00 0.00 14 1016.0
20260508171238 61 271 2.6 4.3 0.00 0.00 0.00 13 1016.1
20260508170738 60 271 0.0 1.7 0.00 0.00 0.00 12 1016.0
20260508170238 60 271 0.0 0.0 0.00 0.00 0.00 12 1016.0
20260508165737 59 280 0.0 0.0 0.00 0.00 0.00 12 1016.0
20260508165238 59 286 0.0 0.0 0.00 0.00 0.00 12 1016.0
20260508164738 58 286 0.0 0.0 0.00 0.00 0.00 12 1016.0
20260508164237 58 286 0.0 0.0 0.00 0.00 0.00 12 1016.1
20260508163738 57 286 0.0 0.0 0.00 0.00 0.00 12 1016.2
20260508162737 57 286 0.0 0.0 0.00 0.00 0.00 13 1016.2
20260508162237 57 286 0.0 0.0 0.00 0.00 0.00 13 1016.2
20260508161737 57 286 0.0 0.0 0.00 0.00 0.00 13 1016.2
20260508161238 57 286 0.0 0.0 0.00 0.00 0.00 13 1016.3
20260508160737 57 286 0.0 0.0 0.00 0.00 0.00 13 1016.3
20260508155237 56 286 0.0 2.6 0.00 0.00 0.00 13 1016.4
20260508154237 56 286 0.0 2.6 0.00 0.00 0.00 13 1016.3
20260508153737 56 286 0.0 0.0 0.00 0.00 0.00 14 1016.4
20260508153237 56 286 0.0 0.0 0.00 0.00 0.00 14 1016.4
20260508152237 55 286 0.0 0.0 0.00 0.00 0.00 14 1016.5
20260508151737 55 286 0.0 0.0 0.00 0.00 0.00 14 1016.4
20260508151236 55 286 0.0 0.0 0.00 0.00 0.00 14 1016.4
20260508150737 55 286 0.0 0.0 0.00 0.00 0.00 14 1016.3
20260508150237 55 286 0.0 0.0 0.00 0.00 0.00 14 1016.3
20260508145736 55 286 0.0 1.7 0.00 0.00 0.00 14 1016.3
20260508145236 55 286 0.0 1.7 0.00 0.00 0.00 14 1016.2
20260508144736 55 287 0.0 0.0 0.00 0.00 0.00 14 1016.3
20260508144236 55 287 0.0 0.0 0.00 0.00 0.00 14 1016.2
20260508143736 55 287 0.0 0.0 0.00 0.00 0.00 14 1016.3
20260508143236 55 287 0.0 0.0 0.00 0.00 0.00 14 1016.2
20260508142736 55 287 0.0 2.6 0.00 0.00 0.00 14 1016.3
20260508142236 55 287 0.0 2.6 0.00 0.00 0.00 14 1016.3
20260508141736 55 287 0.0 0.0 0.00 0.00 0.00 14 1016.3
20260508141236 55 287 0.0 0.0 0.00 0.00 0.00 14 1016.3
20260508140736 55 287 0.0 0.9 0.00 0.00 0.00 14 1016.3
20260508140236 55 287 0.0 0.9 0.00 0.00 0.00 14 1016.3
20260508135736 55 287 0.0 0.0 0.00 0.00 0.00 14 1016.2
20260508135235 55 287 0.0 0.0 0.00 0.00 0.00 14 1016.2
20260508134735 55 287 0.0 0.0 0.00 0.00 0.00 14 1016.1
20260508134235 55 287 0.0 0.0 0.00 0.00 0.00 14 1016.0
20260508133735 55 287 0.0 1.7 0.00 0.00 0.00 14 1016.0
20260508133236 55 287 0.0 2.6 0.00 0.00 0.00 14 1016.0
20260508132735 55 287 0.0 2.6 0.00 0.00 0.00 14 1015.9
20260508132235 55 287 2.6 2.6 0.00 0.00 0.00 14 1016.0
20260508131735 55 287 0.0 0.0 0.00 0.00 0.00 14 1016.0
20260508130235 55 287 0.0 0.0 0.00 0.00 0.00 14 1015.8
20260508125735 55 287 0.0 0.0 0.00 0.00 0.00 14 1015.9
20260508125235 55 287 0.0 0.0 0.00 0.00 0.00 14 1015.9
20260508124735 55 287 0.0 0.0 0.00 0.00 0.00 14 1015.9
20260508124235 55 287 0.0 0.0 0.00 0.00 0.00 14 1015.8
20260508123734 55 287 0.0 0.0 0.00 0.00 0.00 14 1015.8
20260508122734 54 287 0.0 0.0 0.00 0.00 0.00 14 1015.8
20260508122234 54 287 0.0 0.0 0.00 0.00 0.00 14 1015.8
20260508121735 55 287 0.0 0.0 0.00 0.00 0.00 14 1015.7
20260508121235 55 287 0.0 0.0 0.00 0.00 0.00 14 1015.8
20260508120734 55 287 0.0 0.0 0.00 0.00 0.00 14 1015.8
20260508120235 55 287 0.0 0.0 0.00 0.00 0.00 14 1015.7
20260508115734 55 287 0.0 0.0 0.00 0.00 0.00 14 1015.7
20260508115234 55 287 0.0 0.0 0.00 0.00 0.00 14 1015.7
20260508114734 55 287 0.0 0.0 0.00 0.00 0.00 14 1015.7
20260508113734 54 287 0.0 0.0 0.00 0.00 0.00 14 1015.7
20260508113235 54 287 0.0 0.0 0.00 0.00 0.00 14 1015.6
20260508112734 54 287 0.0 0.0 0.00 0.00 0.00 14 1015.7
20260508112234 54 287 0.0 0.0 0.00 0.00 0.00 14 1015.6
20260508111734 54 287 0.0 0.0 0.00 0.00 0.00 14 1015.6
20260508111234 55 287 0.0 0.0 0.00 0.00 0.00 14 1015.6
20260508110734 55 287 0.0 0.0 0.00 0.00 0.00 14 1015.6
20260508110235 55 287 0.0 0.0 0.00 0.00 0.00 14 1015.7